Theta_e
312 316 315 313 313 313 314 314 307 308 319 327 329 333 332 336 337 337 338 342 347 350 352 355 356 358 360 357 359 358 360 360 361 363 365 367 373 373 369 371 372 374 377 377
313 314 313 312 314 315 315 315 316 317 313 330 333 333 334 335 334 334 336 339 343 347 351 353 355 357 359 360 362 363 360 360 364 366 366 366 369 368 371 371 372 376 375 369
308 315 314 309 314 315 317 318 318 315 319 334 331 331 333 334 334 335 337 340 342 344 346 347 349 353 354 358 363 364 365 365 366 367 367 368 368 370 364 366 359 364 363 358
310 314 304 316 324 321 318 320 321 321 318 330 330 331 334 337 337 338 340 339 338 338 341 344 347 349 351 354 360 361 362 361 363 362 360 362 360 357 356 350 356 356 352 350
310 308 312 316 320 320 318 319 325 327 331 332 332 332 333 338 340 340 341 340 339 341 343 347 346 349 351 348 349 354 357 358 359 360 360 359 356 358 357 357 357 358 361 362
313 306 304 317 324 328 327 316 329 330 332 330 331 324 329 339 341 341 341 340 339 341 342 341 344 346 346 346 346 349 354 355 357 358 357 356 357 358 358 358 357 355 356 358
311 309 311 321 323 327 313 321 329 334 336 333 329 336 338 342 341 342 341 340 341 341 341 343 343 345 347 345 346 351 353 355 357 357 356 357 357 358 357 356 356 356 356 360
313 311 307 324 320 315 329 332 335 336 339 336 339 340 341 341 340 340 339 339 338 341 342 344 344 346 348 348 352 355 356 357 357 356 353 352 355 357 356 357 356 358 360 354
314 318 329 327 328 332 335 335 336 338 339 340 339 341 342 341 340 340 340 340 341 340 341 344 347 348 349 353 353 354 354 353 353 354 353 353 354 353 350 357 349 348 342 340
320 325 325 327 330 332 335 336 338 339 340 340 340 343 342 340 340 339 339 340 341 340 341 345 349 350 352 355 355 354 353 352 352 350 349 353 345 344 342 341 343 343 340 338
322 328 328 327 331 332 332 334 336 340 341 341 340 340 340 338 337 337 342 342 344 345 346 347 352 353 354 357 357 353 352 349 348 344 348 348 350 343 343 344 336 339 339 340
321 329 328 329 331 333 331 329 331 331 332 335 336 335 335 336 336 338 342 344 346 347 348 349 348 350 354 358 358 353 348 344 343 341 342 343 341 345 315 316 312 311 308 318
325 332 331 332 334 334 332 332 332 331 332 331 332 332 333 335 340 335 344 346 348 346 344 349 351 352 355 358 356 354 350 351 345 337 343 343 344 342 340 325 311 307 305 305
327 329 327 329 327 331 331 332 330 333 333 333 332 334 333 336 342 341 342 343 343 344 345 347 349 351 355 356 357 355 353 330 345 344 344 343 344 344 342 340 341 342 315 313
327 328 326 329 330 330 330 331 329 331 332 333 335 335 337 341 340 342 343 344 344 343 345 346 345 347 353 351 351 351 350 346 349 345 346 341 346 344 342 341 341 341 344 318
326 326 327 327 329 330 330 328 329 330 333 334 335 337 339 342 342 344 344 347 343 342 345 346 347 348 352 354 349 348 349 340 336 344 344 344 342 343 340 341 341 341 340 340
326 325 326 327 328 329 329 328 331 331 334 334 336 339 340 340 341 343 344 346 348 347 347 347 347 354 354 353 351 343 343 346 341 343 343 341 340 339 339 339 340 341 339 335
333 334 335 334 333 331 331 332 333 334 334 337 338 338 340 340 342 345 346 347 347 346 345 346 350 351 351 349 350 346 343 343 343 342 342 341 340 340 343 339 341 341 340 337
332 332 332 333 335 334 334 333 335 336 337 339 339 338 340 342 344 346 348 348 348 346 343 346 339 341 347 339 333 341 338 337 338 341 344 331 338 341 343 343 341 341 340 340
332 333 334 335 336 337 335 336 336 336 338 339 341 341 342 343 346 347 350 348 348 343 343 345 347 344 344 339 335 330 331 334 335 340 341 339 339 340 340 328 338 340 340 342
332 333 334 334 335 337 338 339 339 337 338 339 341 347 348 346 349 352 351 345 349 346 341 339 342 340 342 336 333 331 331 334 339 339 340 339 340 338 338 337 337 337 337 339
330 331 332 334 335 336 340 339 340 341 340 340 342 345 346 345 346 349 351 346 344 325 339 339 341 337 335 330 330 332 333 334 338 339 338 338 337 335 334 335 335 334 335 336
327 329 331 333 335 336 336 338 340 339 340 341 342 343 342 339 339 340 341 349 346 332 339 337 329 324 325 333 332 334 334 335 335 336 337 338 337 337 335 335 335 335 336 337
326 327 328 330 331 332 334 338 337 339 342 344 344 345 343 339 338 339 343 332 329 328 337 333 329 320 321 333 333 334 334 334 334 335 336 317 334 336 336 335 335 335 335 334
325 325 324 326 325 328 330 331 334 337 340 342 343 344 346 345 340 338 339 341 322 331 339 321 318 318 334 334 333 333 333 333 334 334 333 332 332 333 333 334 333 333 333 333
323 322 323 323 323 323 325 328 328 331 332 335 338 338 339 343 343 341 340 334 340 330 337 337 338 335 338 335 333 333 333 333 332 333 330 331 331 330 331 332 333 333 334 333
318 313 318 321 322 322 324 325 323 325 327 331 335 339 339 340 340 336 330 340 341 338 335 335 339 335 338 336 333 332 333 334 324 331 330 328 328 328 328 330 331 332 333 332
Wind_Speed
18 14 12 3 7 4 11 12 7 22 14 17 17 16 16 14 12 11 11 11 9 8 7 6 5 4 1 4 5 6 7 6 6 7 8 8 7 7 9 9 9 9 9 10
6 1 4 8 7 7 8 6 9 35 14 21 18 17 15 14 12 12 11 11 10 9 9 8 7 6 5 4 2 1 4 6 6 5 5 6 6 8 7 7 8 7 9 11
7 6 7 11 12 7 6 2 13 8 14 22 18 16 15 15 13 12 11 10 9 9 9 8 9 7 6 5 4 5 4 3 1 1 2 1 2 1 6 4 4 2 4 4
11 6 9 12 8 4 7 6 0 20 20 20 15 14 14 13 13 11 10 8 7 9 8 8 8 8 7 7 6 5 5 5 5 4 5 3 3 0 4 2 4 5 4 2
4 7 11 11 8 3 7 7 5 21 21 18 15 15 12 12 11 10 9 8 8 8 9 6 7 5 5 6 6 5 5 4 3 3 4 4 3 3 4 4 6 6 6 7
7 8 8 12 9 4 10 8 12 16 18 17 17 12 12 12 12 11 9 8 8 7 8 10 4 6 5 7 7 7 6 6 5 4 3 2 2 1 2 4 6 6 6 7
10 7 7 11 4 4 12 7 2 9 13 12 9 11 18 14 12 9 9 8 7 4 6 6 4 8 6 7 8 6 5 4 4 3 3 3 2 2 3 4 5 6 7 7
10 8 6 5 1 7 7 2 3 6 11 9 11 14 14 13 11 9 8 8 4 4 6 7 5 4 6 6 5 4 3 4 4 3 3 3 2 3 4 4 6 7 7 8
2 6 8 4 3 3 5 6 2 6 10 10 11 11 12 10 9 9 8 5 2 4 7 5 4 4 5 4 3 3 3 3 3 2 3 2 2 2 6 6 5 6 6 5
2 9 4 5 3 3 4 5 4 6 10 9 10 12 10 11 10 10 9 7 4 4 6 5 4 4 4 4 4 3 3 2 1 2 1 2 4 3 4 4 3 2 5 6
5 7 4 4 5 6 6 5 7 4 4 5 6 9 10 7 4 6 9 6 5 4 3 4 2 1 1 4 4 3 3 3 4 5 1 1 2 4 4 5 4 4 5 5
0 7 7 7 6 4 7 4 5 4 2 3 2 1 3 1 5 2 8 6 4 3 3 2 2 3 3 2 3 4 5 7 2 3 4 1 3 6 4 5 6 2 2 4
4 4 4 1 5 8 6 4 4 4 4 3 4 5 4 5 6 5 8 7 5 2 2 1 0 2 3 3 4 4 5 2 4 5 2 3 4 5 3 3 2 4 6 4
2 3 5 7 8 7 4 6 5 6 4 4 3 2 7 7 12 9 7 6 5 4 3 2 2 4 1 2 2 4 5 1 6 6 3 4 4 5 5 7 2 7 7 3
7 8 9 10 9 5 5 7 10 8 7 5 3 5 7 12 10 8 6 5 5 4 4 2 1 2 1 4 2 4 5 7 5 4 2 3 6 6 6 5 4 4 6 5
12 8 8 7 7 9 10 8 11 10 8 7 6 7 8 9 8 8 7 5 4 3 3 1 2 2 3 1 3 5 6 1 3 7 2 7 4 2 5 4 3 3 2 1
7 8 9 8 8 8 10 12 11 10 9 6 7 8 8 7 9 8 7 7 4 2 2 3 4 4 4 3 4 6 4 8 4 6 7 5 6 3 4 3 4 3 5 6
4 2 2 2 2 6 7 7 8 10 8 10 8 8 9 9 7 8 7 5 4 4 3 2 5 5 4 3 4 5 5 4 6 3 4 5 3 4 2 3 3 5 3 7
7 7 7 7 7 6 6 6 8 8 8 7 9 9 9 10 10 9 9 8 7 5 7 7 9 4 5 3 4 7 7 5 5 3 1 2 7 6 2 2 3 4 4 2
6 5 5 8 8 8 8 8 8 7 8 9 9 10 10 10 10 10 10 10 9 3 2 11 9 8 6 6 5 7 7 4 6 2 1 6 5 2 3 3 5 4 4 2
6 5 4 5 5 5 7 7 7 8 8 8 10 10 10 10 10 9 10 9 11 7 4 12 7 7 7 5 5 9 4 3 3 3 4 5 2 7 3 5 4 3 6 0
6 5 4 2 3 3 1 4 5 6 8 8 9 10 10 10 10 11 12 11 7 15 8 8 8 6 2 6 7 5 3 4 4 4 4 4 4 4 5 3 4 5 5 6
5 4 3 2 2 2 4 4 2 3 5 8 9 10 10 10 9 10 11 13 8 11 8 8 8 16 11 5 7 5 4 4 5 4 4 3 4 4 4 3 4 5 4 1
3 2 0 2 3 4 4 3 7 6 5 7 9 10 10 9 10 10 10 10 13 16 10 6 12 16 11 7 8 6 5 5 4 3 4 1 5 5 5 6 7 6 3 2
1 1 3 1 4 4 3 5 6 8 6 7 9 9 12 10 11 9 10 10 17 13 10 14 14 13 9 9 9 7 6 6 6 5 5 6 7 7 7 7 7 6 4 6
2 3 3 4 5 5 5 4 5 5 6 7 8 8 9 9 10 10 11 8 13 11 11 12 11 10 10 11 11 9 8 7 7 8 8 7 6 7 8 9 10 8 6 5
4 5 5 4 4 4 4 5 5 7 5 6 9 9 10 9 10 11 13 12 11 11 12 10 13 13 11 12 11 10 8 7 6 6 6 7 7 7 8 9 8 7 7 7
Wind_Direction
213 228 210 21 308 233 280 103 122 216 143 161 153 143 125 120 114 111 99 92 95 100 107 110 109 87 87 200 222 209 203 246 236 229 247 222 257 230 222 238 217 241 247 245
289 139 274 266 202 276 290 328 296 129 208 149 134 124 131 125 123 110 102 94 98 102 106 93 87 95 93 88 73 296 198 211 193 215 242 247 235 242 234 240 253 281 275 278
270 113 309 234 257 208 310 291 304 31 39 125 141 140 137 139 131 120 111 110 101 91 79 73 83 72 70 69 78 101 112 100 179 136 179 141 69 352 36 65 351 348 309 359
284 43 250 69 38 360 308 339 104 129 141 234 140 137 135 127 125 123 115 112 95 106 110 101 74 69 74 81 83 93 95 76 75 90 96 76 79 160 308 5 297 277 285 235
277 249 253 150 170 280 250 181 144 124 156 127 138 126 135 133 126 122 121 119 108 103 94 74 85 89 82 67 73 68 75 83 100 100 149 171 201 233 234 229 262 237 279 265
257 277 293 65 62 11 308 256 150 142 127 146 152 179 146 146 137 140 136 123 116 122 137 91 87 105 70 75 62 77 77 74 68 55 56 18 358 326 291 284 276 282 295 282
230 249 251 79 54 355 254 56 56 125 129 155 178 62 132 144 146 149 117 127 116 108 87 100 69 69 65 63 81 78 75 75 71 65 61 37 17 316 319 297 314 286 277 272
242 268 228 34 253 258 57 28 57 116 131 167 100 125 136 143 149 139 133 129 163 127 95 95 87 108 92 82 103 83 70 64 70 64 337 69 333 308 297 286 255 254 250 257
244 59 92 79 46 55 8 103 132 137 145 133 142 143 143 147 154 148 152 153 80 70 90 76 99 49 100 108 112 88 81 78 73 56 26 4 300 311 266 210 272 334 320 347
97 132 132 92 118 137 117 140 162 162 142 167 151 151 155 161 169 171 161 159 120 45 88 116 118 131 110 138 138 163 109 111 134 132 304 2 313 6 334 1 355 344 6 355
196 130 124 169 176 136 116 92 66 90 128 140 147 164 176 181 195 164 122 114 131 145 159 140 112 149 116 149 174 193 183 202 230 156 153 193 71 17 3 62 9 348 21 344
149 143 204 152 180 156 155 157 130 120 108 74 1 154 156 251 150 151 122 118 153 167 155 310 275 254 228 173 197 233 224 207 106 284 200 344 291 163 63 88 149 107 351 339
261 132 186 127 136 182 199 202 175 177 159 162 188 258 241 203 139 124 140 162 164 135 153 71 59 212 178 161 197 221 256 316 258 250 312 317 318 310 311 175 261 199 192 230
250 202 227 214 220 197 241 248 161 246 192 134 309 228 245 178 125 176 146 143 134 135 122 87 37 96 118 210 270 253 264 118 277 265 248 298 300 311 297 291 168 179 196 150
206 217 237 201 220 176 227 246 249 214 213 164 153 205 169 133 178 151 150 140 129 169 146 160 154 103 328 309 282 272 263 268 204 268 301 343 290 285 302 336 336 316 138 166
223 228 233 245 232 233 238 236 240 214 209 164 161 177 167 165 165 157 167 160 187 181 168 181 301 176 215 330 274 227 175 56 313 303 238 242 278 320 312 317 256 247 211 230
202 207 212 231 239 248 244 239 218 225 193 191 167 178 181 187 171 172 191 175 172 204 257 225 245 127 241 229 274 282 291 147 211 269 253 347 324 338 349 312 285 281 207 93
242 341 308 341 315 287 239 237 235 213 221 185 175 188 190 198 210 183 205 215 181 215 224 213 201 201 210 241 257 304 270 261 218 290 357 256 352 299 339 308 273 305 271 138
222 244 247 243 246 248 262 253 237 232 227 207 195 199 203 209 208 212 196 206 204 219 225 191 134 215 210 115 281 271 262 276 255 205 357 11 236 239 319 316 283 268 283 163
224 230 236 240 234 242 239 235 250 250 229 227 226 213 210 217 220 206 205 214 225 253 106 133 178 206 193 161 236 272 276 273 283 345 53 295 257 354 253 199 294 287 275 214
195 194 207 215 227 228 238 242 257 255 242 241 226 226 220 217 222 213 209 219 205 200 220 147 199 207 194 209 226 247 274 239 234 253 214 237 215 247 312 296 300 307 303 46
181 186 172 166 214 185 83 289 257 249 244 241 227 222 222 226 224 214 226 226 206 157 192 205 199 195 102 166 251 270 250 271 238 221 208 255 299 301 312 318 332 342 330 334
166 168 187 189 262 303 282 268 272 234 250 235 239 230 230 236 216 221 215 216 240 173 200 220 161 136 149 224 258 250 251 208 247 249 253 230 247 294 277 288 6 302 257 123
154 164 41 280 327 297 281 332 324 323 298 282 265 250 239 237 237 244 224 205 177 158 214 160 154 147 169 223 241 224 215 250 253 250 275 258 267 278 287 284 254 265 320 211
166 276 242 313 289 260 332 293 303 262 263 255 257 257 242 247 257 259 226 198 142 177 201 145 157 161 186 226 246 222 215 232 230 241 260 273 279 285 280 274 278 284 325 322
289 315 352 319 302 303 291 293 303 342 310 301 293 274 232 230 238 241 252 197 158 185 212 160 178 194 212 224 230 223 222 228 199 213 225 255 274 279 278 280 279 269 249 263
222 219 240 256 271 266 304 359 314 284 309 317 312 311 299 282 232 244 229 203 185 185 216 206 187 192 218 224 224 239 238 228 236 272 283 292 295 286 272 268 273 279 286 287